This is the latest recevied weather packets stored in our database for station/object NQ9F. If no packets are shown the sender has not sent any weather packets the latest 10 day(s).
| Time | Temp. | Humidity | Pressure | Rain* | Wind** | Luminosity | Snow |
|---|---|---|---|---|---|---|---|
| 1777932656 | 27.22° C | 59% | 1006.1 hPa | 0 mm | - | 542 W/m² | - |
| 1777932352 | 27.22° C | 60% | 1006 hPa | 0 mm | - | 660 W/m² | - |
| 1777932049 | 27.22° C | 59% | 1006.2 hPa | 0 mm | - | 504 W/m² | - |
| 1777931746 | 27.78° C | 59% | 1006.3 hPa | 0 mm | - | 412 W/m² | - |
| 1777931444 | 27.78° C | 58% | 1006.2 hPa | 0 mm | - | 646 W/m² | - |
| 1777931139 | 27.78° C | 58% | 1006.2 hPa | 0 mm | - | 684 W/m² | - |
| 1777930836 | 27.22° C | 58% | 1006.2 hPa | 0 mm | - | 760 W/m² | - |
| 1777930532 | 27.22° C | 59% | 1006.4 hPa | 0 mm | - | 516 W/m² | - |
| 1777930230 | 27.22° C | 58% | 1006.4 hPa | 0 mm | - | 487 W/m² | - |
| 1777929925 | 27.78° C | 60% | 1006.6 hPa | 0 mm | - | 456 W/m² | - |
| 1777929623 | 27.78° C | 58% | 1006.6 hPa | 0 mm | - | 484 W/m² | - |
| 1777929320 | 27.22° C | 57% | 1006.7 hPa | 0 mm | - | 688 W/m² | - |
| 1777929017 | 27.78° C | 57% | 1006.9 hPa | 0 mm | - | 566 W/m² | - |
| 1777928714 | 27.22° C | 57% | 1006.9 hPa | 0 mm | - | 589 W/m² | - |
| 1777928410 | 27.78° C | 56% | 1006.8 hPa | 0 mm | - | 709 W/m² | - |
| 1777928108 | 27.78° C | 58% | 1006.9 hPa | 0 mm | - | 872 W/m² | - |
| 1777927806 | 27.78° C | 57% | 1007.3 hPa | 0 mm | - | 898 W/m² | - |
| 1777927504 | 27.78° C | 58% | 1007.2 hPa | 0 mm | - | 898 W/m² | - |
| 1777927203 | 27.22° C | 57% | 1007.4 hPa | 0 mm | - | 931 W/m² | - |
| 1777926900 | 27.22° C | 57% | 1007.6 hPa | 0 mm | - | 933 W/m² | - |
| 1777926596 | 26.67° C | 57% | 1007.6 hPa | 0 mm | - | 935 W/m² | - |
| 1777926293 | 27.22° C | 57% | 1007.8 hPa | 0 mm | - | 902 W/m² | - |
| 1777925990 | 27.22° C | 57% | 1007.9 hPa | 0 mm | - | 969 W/m² | - |
| 1777925687 | 27.22° C | 58% | 1008 hPa | 0 mm | - | 951 W/m² | - |
| 1777925384 | 26.67° C | 58% | 1008.1 hPa | 0 mm | - | 929 W/m² | - |
* Rain latest hour (hover to see other rain measurements)
** Current wind speed in m/s (hover to see current wind gust speed)